Location: USNO
(38.9242°N, 77.0663°W)
Time: 10:37:34
(UTC-04:00)

ISS - Pass Details

Date: 10 October 2017
Orbit: 401 x 408 km, 51.6° (Epoch: 19 October)

Event Time Altitude Azimuth Distance (km) Brightness Sun altitude
Rises 19:42:00 0° 317° (NW) 2,326 0.8 -13.5°
Reaches altitude 10° 19:44:32 10° 337° (NNW) 1,465 -0.7 -14.0°
Maximum altitude 19:46:55 18° 23° (NNE) 1,066 -1.9 -14.5°
Enters shadow 19:47:34 17° 39° (NE) 1,101 -2.0 -14.6°
